Date String (YYYY-MM-DD hh:mm:ss) UTC,Instrument flags,Ambient pressure (hPa),Sample flow (lpm),Bypass flow (lpm),Sample temperature (°C),Ambient temperature (°C),ASC tube jacket temperature (°C),LED temperature (°C),Box temperature (°C),Sample RH (%),Span deviation,Mass concentration (μg/m³),Mass concentration (μg/m³),Mass concentration (μg/m³)
DateTimeUTC,F1_M11,P_M11,Q1_M11,Q2_M11,T1_M11,T2_M11,T3_M11,T4_M11,T5_M11,U1_M11,ZSPAN_M11,X0_M11,X2_M11,X1_M11
2022-12-16 11:00:00,,0821.9,4.97,0.00,22.1,21.9,00.0,30.8,24.0,03.4,0000.0,0001.81,0001.26,0001.09
2022-12-16 11:01:00,,0821.9,5.04,0.00,22.1,21.4,00.0,30.9,23.9,03.4,0000.0,0001.77,0001.27,0001.09
2022-12-16 11:02:00,,0822.1,4.98,0.00,22.1,21.1,00.0,30.9,23.8,03.4,0000.0,0001.71,0001.26,0001.10
2022-12-16 11:03:00,,0822.0,4.98,0.00,22.0,20.8,00.0,30.9,23.7,03.4,0000.0,0001.71,0001.26,0001.10
2022-12-16 11:04:00,,0821.9,5.04,0.00,22.0,20.6,00.0,30.9,23.7,03.4,0000.0,0001.73,0001.27,0001.10
2022-12-16 11:05:00,,0821.8,4.96,0.00,22.0,20.5,00.0,30.9,23.6,03.4,0000.0,0001.71,0001.26,0001.10
2022-12-16 11:06:00,,0822.0,5.04,0.00,21.9,20.3,00.0,30.9,23.6,03.5,0000.0,0001.72,0001.25,0001.09
2022-12-16 11:07:00,,0822.1,4.97,0.00,21.9,20.3,00.0,30.8,23.5,03.6,0000.0,0001.81,0001.27,0001.09
2022-12-16 11:08:00,,0822.0,4.99,0.00,21.9,20.9,00.0,30.8,23.7,03.5,0000.0,0001.88,0001.27,0001.08
2022-12-16 11:09:00,,0821.9,5.03,0.00,22.0,21.9,00.0,30.8,23.9,03.4,0000.0,0001.88,0001.26,0001.08
2022-12-16 11:10:00,,0821.8,4.98,0.00,22.1,22.0,00.0,30.8,24.0,03.4,0000.0,0001.92,0001.27,0001.08
2022-12-16 11:11:00,,0821.8,5.04,0.00,22.1,21.6,00.0,30.9,23.9,03.4,0000.0,0001.94,0001.26,0001.08
2022-12-16 11:12:00,,0821.8,4.95,0.00,22.0,21.2,00.0,30.9,23.8,03.4,0000.0,0001.92,0001.25,0001.08
2022-12-16 11:13:00,,0821.8,5.06,0.00,22.0,20.8,00.0,30.9,23.7,03.5,0000.0,0002.01,0001.24,0001.07
2022-12-16 11:14:00,,0821.8,4.98,0.00,22.0,20.6,00.0,30.9,23.6,03.4,0000.0,0002.03,0001.24,0001.07
2022-12-16 11:15:00,,0821.8,4.97,0.00,21.9,20.3,00.0,30.9,23.5,03.4,0000.0,0002.11,0001.25,0001.08
2022-12-16 11:16:00,,0821.8,5.05,0.00,21.9,20.2,00.0,30.8,23.4,03.3,0000.0,0002.12,0001.26,0001.09
2022-12-16 11:17:00,,0822.2,4.97,0.00,21.8,20.3,00.0,30.8,23.4,03.4,0000.0,0002.10,0001.26,0001.10
2022-12-16 11:18:00,,0822.1,5.03,0.00,21.9,21.2,00.0,30.7,23.7,03.5,0000.0,0001.98,0001.24,0001.10
2022-12-16 11:19:00,,0821.9,4.96,0.00,22.0,21.9,00.0,30.7,23.9,03.5,0000.0,0001.91,0001.25,0001.12
2022-12-16 11:20:00,,0821.8,5.00,0.00,22.0,21.8,00.0,30.8,23.9,03.5,0000.0,0001.88,0001.24,0001.13
2022-12-16 11:21:00,,0821.9,5.04,0.00,22.0,21.3,00.0,30.8,23.8,03.3,0000.0,0001.89,0001.26,0001.14
2022-12-16 11:22:00,,0822.0,4.95,0.00,22.0,21.0,00.0,30.8,23.7,03.4,0000.0,0001.84,0001.25,0001.14
2022-12-16 11:23:00,,0822.1,5.05,0.00,21.9,20.7,00.0,30.8,23.6,03.4,0000.0,0001.82,0001.25,0001.15
2022-12-16 11:24:00,,0821.9,4.98,0.00,21.9,20.5,00.0,30.8,23.5,03.4,0000.0,0001.86,0001.28,0001.15
2022-12-16 11:25:00,,0821.8,4.99,0.00,21.8,20.3,00.0,30.8,23.5,03.4,0000.0,0001.88,0001.30,0001.17
2022-12-16 11:26:00,,0821.9,5.02,0.00,21.8,20.2,00.0,30.8,23.4,03.4,0000.0,0001.82,0001.31,0001.17
2022-12-16 11:27:00,,0822.0,4.98,0.00,21.8,20.6,00.0,30.7,23.5,03.3,0000.0,0001.82,0001.31,0001.18
2022-12-16 11:28:00,,0821.9,5.03,0.00,21.9,21.6,00.0,30.7,23.8,03.3,0000.0,0001.87,0001.34,0001.20
2022-12-16 11:29:00,,0822.0,4.95,0.00,22.0,22.1,00.0,30.7,23.9,03.3,0000.0,0002.21,0001.35,0001.20
2022-12-16 11:30:00,,0822.0,5.03,0.00,22.0,21.7,00.0,30.8,23.9,03.3,0000.0,0002.22,0001.35,0001.20
2022-12-16 11:31:00,,0822.0,5.00,0.00,22.0,21.3,00.0,30.8,23.7,03.3,0000.0,0002.22,0001.35,0001.20
2022-12-16 11:32:00,,0822.2,4.98,0.00,21.9,20.9,00.0,30.8,23.6,03.3,0000.0,0002.16,0001.33,0001.21
2022-12-16 11:33:00,,0821.9,4.98,0.00,21.9,20.5,00.0,30.8,23.5,03.4,0000.0,0002.15,0001.34,0001.21
2022-12-16 11:34:00,,0822.1,5.03,0.00,21.8,20.3,00.0,30.8,23.4,03.3,0000.0,0002.16,0001.35,0001.21
2022-12-16 11:35:00,,0821.9,4.97,0.00,21.8,20.3,00.0,30.7,23.3,03.3,0000.0,0002.11,0001.35,0001.22
2022-12-16 11:36:00,,0821.9,5.05,0.00,21.8,21.1,00.0,30.7,23.6,03.3,0000.0,0002.09,0001.36,0001.22
2022-12-16 11:37:00,,0822.1,4.96,0.00,21.9,22.0,00.0,30.7,23.8,03.3,0000.0,0002.09,0001.36,0001.22
2022-12-16 11:38:00,,0822.1,5.01,0.00,22.0,22.5,00.0,30.7,24.0,03.4,0000.0,0002.08,0001.35,0001.22
2022-12-16 11:39:00,,0822.1,5.00,0.00,22.1,21.9,00.0,30.8,23.9,03.4,0000.0,0002.01,0001.33,0001.21
2022-12-16 11:40:00,,0822.1,4.99,0.00,22.0,21.4,00.0,30.8,23.8,03.4,0000.0,0001.85,0001.35,0001.21
2022-12-16 11:41:00,,0822.1,5.03,0.00,22.0,21.0,00.0,30.8,23.6,03.4,0000.0,0001.80,0001.37,0001.22
2022-12-16 11:42:00,,0822.1,4.98,0.00,21.9,20.7,00.0,30.8,23.5,03.4,0000.0,0001.82,0001.39,0001.23
2022-12-16 11:43:00,,0822.2,4.97,0.00,21.9,20.5,00.0,30.8,23.4,03.3,0000.0,0001.87,0001.41,0001.23
2022-12-16 11:44:00,,0822.2,5.04,0.00,21.8,20.2,00.0,30.8,23.3,03.3,0000.0,0001.90,0001.40,0001.22
2022-12-16 11:45:00,,0822.2,4.97,0.00,21.7,20.1,00.0,30.8,23.3,03.3,0000.0,0001.97,0001.43,0001.24
2022-12-16 11:46:00,,0822.2,5.05,0.00,21.8,20.9,00.0,30.7,23.5,03.4,0000.0,0002.12,0001.42,0001.24
2022-12-16 11:47:00,,0822.1,4.95,0.00,21.9,21.9,00.0,30.7,23.7,03.4,0000.0,0002.22,0001.42,0001.23
2022-12-16 11:48:00,,0822.1,5.01,0.00,22.0,22.4,00.0,30.7,24.0,03.3,0000.0,0002.32,0001.43,0001.23
2022-12-16 11:49:00,,0822.1,5.00,0.00,22.0,21.9,00.0,30.8,23.9,03.3,0000.0,0002.36,0001.44,0001.22
2022-12-16 11:50:00,,0822.1,4.99,0.00,22.0,21.4,00.0,30.8,23.8,03.3,0000.0,0002.61,0001.47,0001.23
2022-12-16 11:51:00,,0822.0,5.04,0.00,22.0,21.0,00.0,30.8,23.7,03.3,0000.0,0002.67,0001.47,0001.23
2022-12-16 11:52:00,,0822.0,4.97,0.00,21.9,20.8,00.0,30.8,23.6,03.3,0000.0,0002.68,0001.45,0001.22
2022-12-16 11:53:00,,0822.0,5.03,0.00,21.9,20.5,00.0,30.8,23.5,03.3,0000.0,0002.68,0001.44,0001.21
2022-12-16 11:54:00,,0822.0,4.98,0.00,21.8,20.2,00.0,30.8,23.4,03.3,0000.0,0002.70,0001.45,0001.20
2022-12-16 11:55:00,,0822.0,4.98,0.00,21.8,20.1,00.0,30.8,23.3,03.3,0000.0,0002.66,0001.43,0001.20
2022-12-16 11:56:00,,0822.1,5.03,0.00,21.7,20.2,00.0,30.7,23.3,03.3,0000.0,0002.61,0001.41,0001.19
2022-12-16 11:57:00,,0822.1,4.99,0.00,21.8,21.3,00.0,30.7,23.6,03.2,0000.0,0002.47,0001.38,0001.18
2022-12-16 11:58:00,,0822.1,5.00,0.00,21.9,22.2,00.0,30.7,23.8,03.2,0000.0,0002.34,0001.39,0001.18
2022-12-16 11:59:00,,0822.2,5.00,0.00,22.0,22.4,00.0,30.7,24.0,03.3,0000.0,0002.28,0001.39,0001.19
